作者d00687 (DADA)
看板TWICE
標題[影音] 170508 TWICE SIGNAL TEASER β
時間Mon May 8 23:00:06 2017
◢
◢◤ █ ████ ████ ████ █
◢◣ ◢◤ █ █ █ █ █ █ █ ◢◣ ◢◣◢◣
█◣◢◤◥◣◥◣ █ █ ▅▅ █ █ ████ █ ◢◤◥◣◢█◥██◤
◥◤ ◥◣ █ █ █ █ █ █ █ █ ◥◤ ◥◤
◢◤ █ ████ █ █ █ █ ███
◢◤
◤
TWICE 4TH MINI ALBUM SIGNAL TEASER β
[Youtube]
https://youtu.be/Oo8gk7Sg_4M
[Naver]
http://tv.naver.com/v/1665237
[Vlive]
http://www.vlive.tv/video/29616
TWICE
SIGNAL
2017.05.15 6PM
======================================
各大通路 現正預購中
五大唱片
https://goo.gl/JUYGZ0 A版
https://goo.gl/PeDr9w B版
https://goo.gl/uu31HS C版
九五樂府
https://goo.gl/gEciQI A版
https://goo.gl/rsTL7C B版
https://goo.gl/R05Dob C版
Synnara
https://goo.gl/BuzAXT
Hottracks
https://goo.gl/wqwhSH
Gmarket
https://goo.gl/ScVYgh
專輯內容及訂購相關請洽
#1P1qsL8r (TWICE)
#1P1-FDTt (TWICE)
欲使用Gmarket購買可參考
#1P1v5PCV (TWICE)
#1P1_pDrj (TWICE)
--
※ 發信站: 批踢踢實業坊(ptt.cc), 來自: 124.155.162.187
※ 文章網址: https://webptt.com/m.aspx?n=bbs/TWICE/M.1494255608.A.010.html
1F:推 emo9: TWICE SIGNAL <3 05/08 23:00
2F:推 milk1982: 推 05/08 23:00
3F:→ tycousin: 啊啊啊啊啊 05/08 23:00
4F:→ Cheeser: 推!! 05/08 23:00
5F:推 re: 推 05/08 23:00
6F:推 AkiRyou: 推 05/08 23:00
7F:推 abaolove: 推 05/08 23:00
8F:推 danny5092002: 推 05/08 23:00
9F:推 hcho8344: 推!! 05/08 23:01
10F:推 kevin890218: 推~ 05/08 23:01
11F:推 lechemelk: 這次的爆點是三歲嗎XDDD 05/08 23:01
12F:推 Sherlock0324: 推 05/08 23:01
13F:推 Dubu0528: 推!! 05/08 23:01
14F:推 SaTzu1023: 啊啊啊啊啊啊啊 05/08 23:01
15F:推 KaiPTTer: 志效好美>< 05/08 23:01
16F:推 husky1989: 天啊~~~~~~~三歲的頭髮XDDDD 05/08 23:01
17F:推 tim24262426: 推 05/08 23:01
18F:推 mega1929: 被音效嚇到推~ 05/08 23:01
19F:推 tsaizoe: 推 05/08 23:01
20F:→ tycousin: 這雙馬尾 好可愛啊 ! 05/08 23:01
21F:→ danny5092002: 三歲XDDDDDD 05/08 23:01
22F:→ snio2427: XDDDDDDDDD三歲 05/08 23:01
23F:推 zxakmusic: 三歲頭髮啊XDDD 05/08 23:01
24F:推 karta2926835: 三歲XDDDDDD 05/08 23:01
25F:推 jds2518: 又是那個頭XDD 05/08 23:01
26F:→ Dubu0528: 其實剛看到Mina的時候想到重返二十歲XD 05/08 23:01
27F:→ snio2427: 小隊好美阿 05/08 23:01
28F:推 kenjohn: 推 05/08 23:01
29F:→ lechemelk: 不過志效也太美了吧~~ 05/08 23:01
30F:推 minne96: 志效啊啊啊啊 05/08 23:01
31F:推 elley504: 見三歲一秒噴笑XDDDD 志效MINA好美壓<3333 05/08 23:01
32F:推 mayalovehp: XDDDDDDDD 05/08 23:01
33F:推 WindowLocker: 那音效有點俗.. 05/08 23:01
34F:→ cpbl727005: 推~ 05/08 23:01
35F:推 rh0316: 頭髮XDDDDDDDDD 05/08 23:01
36F:推 chengzan9309: 雞冠頭沒錯 05/08 23:01
37F:→ husky1989: mina跟志效太美了吧 05/08 23:01
38F:推 tpmstr111: 推推 05/08 23:01
39F:推 wty84136: 超喜歡小隊啊啊啊啊 05/08 23:01
40F:推 RonChen: 三歲的頭髮跟多賢差不多猛阿XDDDD 05/08 23:01
41F:推 ba1020: 啊啊啊啊 這三個美哭我TT 05/08 23:01
42F:推 morgan84726: 小隊太正了~ 05/08 23:01
43F:推 pinkcircleee: 換大姐中槍哈哈 05/08 23:01
45F:推 songmeng: 三歲要和豆腐PK髮型XDDDD 05/08 23:01
46F:推 EVA1125ONCE: 第2位都要毛毛頭嗎XDD 05/08 23:01
47F:推 crazywing: 三歲的頭髮至少不像豆腐的那麼震撼 XDDD 05/08 23:01
48F:推 kk9430167: 推 05/08 23:02
49F:推 emo9: 這是 三種風格嗎XD 05/08 23:02
50F:推 PROMAC: 三歲的髮型 XD 05/08 23:02
51F:推 tom5855: 等等換娜璉在ig發文了嗎xD 05/08 23:02
52F:推 micky40086: 推 05/08 23:02
53F:→ devidevi: 五個人????還是我眼花了,第二個認不出來是誰... 05/08 23:02
54F:推 popo60312: 三歲是發生什麼事情了XDDD 05/08 23:02
55F:推 lOnCEl: 娜璉的頭阿 XDD 05/08 23:02
56F:推 lovely66chun: 小隊超美 05/08 23:02
57F:推 ghost0119: 推~~~~ 05/08 23:02
58F:推 yunnie17: 推推 總之都好Q啊啊啊啊爆擊一波 05/08 23:02
59F:推 a8754068: 故事設定要偷東西嗎xDDDDDDDDD 05/08 23:02
60F:推 TExpress: 看來第二個探頭的都會有特別的髮型XDDDDDDDDDDDD 05/08 23:02
61F:推 aa8318800: 小姐姐XDDDDDDD怎麼每天都有一位有爆點XD 05/08 23:02
62F:→ popo60312: 照這一天一位成員髮型大進化 明天誰會中獎呢XD 05/08 23:02
63F:推 WeLove5566: 看過豆腐後,三歲衝擊減半 05/08 23:02
64F:推 wangwu9012: 志效好美超適合 05/08 23:02
65F:→ zxakmusic: 明天換誰來個爆炸頭XDDD 05/08 23:02
66F:→ husky1989: 最後那個音效讓我想到戲說台灣XD 05/08 23:02
67F:推 tab222777: 今天換三歲的髮型XDDDDDDDDDDDDDDDDDDDDDDDDDDDDDDDDDD 05/08 23:02
68F:推 laki0802: 果然是千里眼是嗎wwww 05/08 23:02
69F:→ tychou: 推推 05/08 23:02
70F:→ devidevi: 中間三個都是三歲???.... 05/08 23:02
71F:→ popo60312: Mina和志效心臟暴擊阿!!! 05/08 23:02
72F:推 mintmina: 又美又可愛 05/08 23:02
73F:推 lintwtw: 推!好期待超能力到底會怎麼展現啊! 05/08 23:02
74F:推 williaz1123: 推 05/08 23:03
75F:推 enpitsu: 三歲穿的是透明塑膠袋嗎XD 05/08 23:03
76F:推 oshimanyan: 推推!!! 05/08 23:03
77F:→ ghost0119: 小隊好漂亮啊~~~~ 05/08 23:03
78F:推 little8: 替明天sana的髮型擔憂XD(定延跟彩彩都是短髮應該不至於 05/08 23:03
79F:推 rain00009509: 這次teaser 服裝跟髮型真的好復古哦 05/08 23:03
80F:推 m9o2o: 小隊使用能力那裡還以為會出現藍眼XD 05/08 23:03
81F:→ little8: 太驚人XDD) 05/08 23:03
82F:→ aa8318800: 不過都好美啊啊啊啊 05/08 23:03
83F:推 niiiiina: 小隊好美!!! 05/08 23:03
84F:推 fissive: 小隊超級美der 05/08 23:03
85F:推 sshero: 我覺得三歲的髮型很可愛欸TT 05/08 23:03
86F:推 secret1414: 為什麼有音效像類戲劇 05/08 23:03
87F:推 local98: 推啊 05/08 23:03
88F:推 ce115225: 好美好可愛啊!! 05/08 23:03
89F:推 danny5092002: 小隊超適合!!!!! 05/08 23:03
90F:推 rh0316: 明天會是誰的頭髮被玩勒(咦XDDD 05/08 23:03
91F:→ niiiiina: 小隊好適合復古裝扮喔! 05/08 23:03
92F:推 wty84136: 三歲頭髮哈哈哈 明天不知道換誰XD 05/08 23:03
93F:推 stu2705: 怎麼都是中間出現的成員,髮型都是爆點XD 05/08 23:03
94F:推 nora12631: 是不是第二個出現的髮型都比較猛啊! 05/08 23:03
95F:→ EVA1125ONCE: MINA-娜璉-MINA-娜璉-志效(應該是因為志效不能站 05/08 23:03
96F:推 printemps: 中間出現的頭髮比較亂(?) 05/08 23:03
97F:推 yuan0117: 娜璉很美啊 05/08 23:03
98F:→ popo60312: 三歲的頭好叢林風哈哈哈 05/08 23:03
99F:推 Nivose13: 三歲.....妳剛睡醒嗎XD 05/08 23:03
100F:推 orangeonly: 三歲XDD 志效Mina好美 05/08 23:03
101F:→ WeLove5566: 三歲髮型超適合他年紀(誤) 05/08 23:03
102F:推 castle1011: 都美 不過三歲出來我真的笑了.抱歉 小隊 美翻 05/08 23:03
103F:推 jiayouwen: 這音效...XDD 05/08 23:04
104F:推 kshndhu: 三歲 XDDDDDDDDD 05/08 23:04
105F:推 pasor: 小隊超美!!!! 05/08 23:04
106F:推 YunMengTien: 所以下一組第二個出現的髮型會很特別嗎XDD 05/08 23:04
107F:推 zxcv7415: 先猜明天第二個SANA XDD 05/08 23:04
108F:推 pinkcircleee: 推小隊超適合 05/08 23:04
109F:推 sea456123: 我懂了!! 第一位是山脈 第二位是奇特髮型 第三位是 05/08 23:04
110F:→ sea456123: 超能力 05/08 23:04
111F:推 biobirst: 這音效故意的吧 哈哈 05/08 23:04
112F:→ WeLove5566: 明天肉鬆頭的會是?Sana? 05/08 23:04
113F:推 erica568837: 三歲髮型XD 05/08 23:04
114F:推 yisheng224: 摸不著頭緒啊! 05/08 23:04
115F:推 a60921ya: 小隊美出新高度啊啊啊!! 05/08 23:04
116F:推 yashunBlair: 推啊 孩子好美 05/08 23:04
117F:推 kaaay: 推 05/08 23:04
118F:→ Nivose13: 小隊有種算命師的感覺 05/08 23:04
119F:推 Antibody0409: 每次第二個出來的頭我都會笑出來XDD 05/08 23:04
120F:推 ppaagg: 志效超美!!!!!!!! 05/08 23:04
121F:推 ookiniSN9: 明天第二個會是哪個受害者呢XD 05/08 23:04
122F:推 pudings: 髮型中了XDDDD 05/08 23:04
123F:推 sherry1312: 小隊超美!!!!!! 05/08 23:04
124F:推 onebuck: 兩大山脈一探頭大叔都好心空唷 05/08 23:04
125F:推 kim8547123: 三歲這種髮型是不是以前很流行吧 05/08 23:04
127F:推 tysone: 推推 !!!!!!! 05/08 23:05
128F:推 Ilt0101: 我想猜Sana XDD 05/08 23:05
129F:推 osaka3131: 推推 05/08 23:05
130F:推 tan73: 小隊美翻了o<-< 05/08 23:05
131F:推 temma: XDDDDDDDD 05/08 23:05
132F:推 evaaafang: 音效超好笑哈哈哈 大家都好可愛~ 05/08 23:05
133F:推 wty84136: 期待明天啊啊啊 05/08 23:05
134F:推 ILNARA: 痾....三歲妳的頭..... 05/08 23:05
135F:→ devidevi: 出現的順序是mina 三歲 mina 三歲 小隊 這樣??... 05/08 23:05
136F:推 vveva: 都有一個特別造型XD 05/08 23:05
137F:→ ookiniSN9: \GOD志效/\GOD志效/\GOD志效/真的太正了TT 05/08 23:05
138F:推 husky1989: 三歲在俏皮什麼啦XDD 05/08 23:05
139F:推 tycousin: 感覺明天SANA會是第二個出現 ,只有她是長髮 .. 05/08 23:05
140F:推 CheChorryco: 喔~~~伊喔伊喔~~~~笑炸了我 智效這樣很漂亮 05/08 23:05
141F:→ d00687: 以下開放猜測明天的受害者(X 05/08 23:05
142F:推 katheri: 今天換三歲的髮型跟衣服XDDDDD 05/08 23:05
143F:推 flyR: 推 05/08 23:05
144F:推 fusion0914: 阿阿阿阿阿~Mina 娜璉 小隊呀 都美翻了>///< 是不是 05/08 23:06
145F:→ fusion0914: 第二出場的髮型都特別…有趣XD 05/08 23:06
146F:推 elley504: 晚一點可能就換三歲發IG了XDD 05/08 23:06
147F:→ kim8547123: 我猜SANA 05/08 23:06
148F:→ local98: 第二個出場的頭髮都比較亂嗎?XDDD 05/08 23:06
149F:推 jimmy20642: 小隊正翻了>///< 05/08 23:06
150F:推 irenefly: 這組好美!!!!但MINA的衣服.......... 05/08 23:06
151F:推 TExpress: 猜Sana+1 1.頭髮最長2.萬年髮型擔當XDDDDDDDDD 05/08 23:06
152F:推 WeLove5566: 如果明天肉鬆的是彩彩會很有爆點 05/08 23:06
153F:推 lOnCEl: XDD 05/08 23:06
154F:推 aliceliu333: 我怎麼覺得是彩彩是第二個XDDD 05/08 23:06
155F:推 stacy9810: 這音效好恐怖>< 05/08 23:06
156F:推 GOQQ: 明天猜定延XDD 05/08 23:06
157F:推 Toro717: 總覺得mina衣服有點像菜籃XDDDDDDDDDDDDDDD 05/08 23:06
158F:推 aa8318800: 都好可愛啊啊啊啊 小隊的造型真的好適合 05/08 23:06
159F:推 mrdreamer: 小隊太正了~~~~~~~~~~~ 05/08 23:06
160F:推 EVA1125ONCE: d大對喔 應該是因為志效不太能站 拍得比較低 05/08 23:06
161F:推 skyyks: 猜定延加一 05/08 23:06
162F:推 roshe8780: 鳥巢姐妹~ 05/08 23:06
163F:推 dawnA: 猜明天定延第一個 05/08 23:06
164F:推 PROMAC: 三歲的超能力好像也有展現 倒帶? 05/08 23:06
165F:推 popo60312: 志效一從樹探出頭了 我就倒了O<-< 05/08 23:06
166F:推 castle1011: 小隊這次真的美到新高度了O<-< 05/08 23:06
167F:推 flyfish1130: 那音效XDDDDDD 05/08 23:06
168F:推 kop88205: 期待明天鳥巢會是誰擔任XDD 05/08 23:07
169F:推 Rr111: 明天猜定延毛毛頭~ 05/08 23:07
170F:推 god08023: 我覺得是彩彩啊~\獅子王辛巴/ 05/08 23:07
171F:推 liuyier: 三歲還是很美啊!又或者昨天衝擊太大了哈哈 05/08 23:07
172F:推 s6625696: 推XDDD 05/08 23:07
173F:推 ookiniSN9: 我要岔豆俞定延啦!XD 05/08 23:07
174F:→ Ilt0101: 娜璉今天Ig的"我啊我"會不會其實是透露XDDD 05/08 23:07
175F:→ WeLove5566: 大家用力刷看能不能登上前10大 05/08 23:07
176F:推 qazxswptt: 今天肉鬆后冠得主是三歲 等明天 05/08 23:07
177F:→ popo60312: 期待明天下午的正翻天預告照XD 05/08 23:07
178F:→ roshe8780: 被小隊的眼睛吸進去了! 05/08 23:07
179F:推 imasu: 那個音效我為什麼會想到潛龍諜影啊XDDDDDDDDD 05/08 23:07
180F:推 husky1989: 猜明天是定延 05/08 23:07
181F:推 Gaex: 三歲表情好有趣XD 志效好美啊! Mina有點彩彩的呆萌感 05/08 23:07
182F:推 WLR: 頭髮又來了XDDD 05/08 23:07
183F:→ popo60312: 志效的眼睛根本玫瑰瞳鈴眼阿! 把人吸進去了XD 05/08 23:07
184F:推 pistw: 哈哈哈哈哈三歲的頭XDDD 05/08 23:07
185F:推 cw22: 小隊特效超級類戲劇的 XDDDDD 05/08 23:07
186F:推 orangeonly: 期待明天的第二個人+1 XDD 05/08 23:08
187F:推 mayalovehp: 我喜歡娜璉的髮型欸XDDDDD 05/08 23:08
188F:推 CheChorryco: 我一直想到摩登原始人 05/08 23:08
189F:→ god08023: 看誰明天發ig打強心針就知道誰當選了XDDD 05/08 23:08
190F:推 emo9: 在森林裡穿復古裝? -.- 05/08 23:08
191F:推 keikokth: Mina好萌QQ看到三歲頭髮我爆笑了XD 05/08 23:08
192F:→ devidevi: Ilt大,有可能,透露今天換三歲髮型擔當... 05/08 23:08
193F:推 lspssjk00: \Mina/ 05/08 23:08
194F:推 d8757040: 有燙頭髮的都是這樣嗎 那明天是定延? 05/08 23:08
195F:→ pistw: 等一下拉最後那個音效跟拉近的技巧真的超像戲說台灣XDDDDD 05/08 23:08
196F:→ greatgatsby: 其實戲說台灣拍的不差XD 05/08 23:08
197F:推 kenro: 第二個出場髮型都要翹翹的嗎?XD 但覺mina型和娜璉好像 05/08 23:08
198F:推 p47603986: 音效跟造型一整個復古XD 05/08 23:09
199F:推 irenefly: 繼昨天多賢的髮型 今天娜璉髮型我也超愛的>///< 05/08 23:09
200F:推 Rr111: 定延頭髮有比較長了 所以可以期待看看? 05/08 23:09
201F:推 wisheidolon: 看完昨天豆腐 三歲真的沒什麼XD 05/08 23:09
202F:推 aliceliu333: 是玫瑰瞳鈴眼啦 不然台灣變色龍XDDDDDDD 05/08 23:09
203F:推 cow22043946: 推 05/08 23:09
204F:推 universe1126: 小隊真的真的超級美啊 這造型太適合她了 05/08 23:09
205F:→ CheChorryco: 不是翹翹 是炸炸的 05/08 23:09
206F:推 Ilt0101: 結果明天三個頭髮沒一個正常的(欸 05/08 23:09
207F:→ CheChorryco: XDD 05/08 23:09
208F:→ universe1126: 我也猜明天俞定延 XD 05/08 23:09
209F:推 kk9430167: 戲說台灣XD 05/08 23:09
210F:推 EVA1125ONCE: 記得昨天有人說三歲跟定延都有燙髮 那應該是定延了XD 05/08 23:09
211F:推 lechemelk: 這次的TEASER會讓人想重播重播再重播耶~ 05/08 23:09
212F:推 HowWhy99: 快笑死 XDDD 05/08 23:10
213F:推 hyscout: 10分鐘已經6.3萬人看了 05/08 23:10
215F:→ CheChorryco: 成功引話題 05/08 23:10
216F:推 A48R018: 志效啊啊啊太美了吧!! 05/08 23:10
217F:推 popo60312: 期待明天的髮型炸法XDDD 05/08 23:11
219F:推 lOnCEl: 娜璉的 頭整個 超XDD 05/08 23:11
220F:推 lechemelk: 等等應該不會又開始P圖大戰了吧XDDDDDDDD 05/08 23:12
221F:推 HowWhy99: 現在固定第二個 頭髮一定要亂亂的就是了 05/08 23:12
222F:推 sodavoxyi: Mina跟小隊美到我心臟好痛QAQ三歲的髮型XDDD 05/08 23:12
223F:推 MomomyLove: 三歲頭髮好狂XDDD志效真的很美 05/08 23:12
224F:推 pistw: 我要等P圖大戰了XDDDD 05/08 23:12
225F:→ qazxswptt: 肉鬆頭 橄欖頭 明天是什麼 05/08 23:12
226F:推 konglufacy: 以超能力來猜,明天順序是彩瑛>定延>sana(施展超能力 05/08 23:12
227F:→ konglufacy: 隱形) 05/08 23:12
228F:推 lspssjk00: 志效真的好美 05/08 23:13
229F:推 m9o2o: 覺得teaser運鏡技術好好,超期待MV 05/08 23:13
230F:推 kshndhu: 第二個都是頭髮亂 第三個是展現超能力~~~ 05/08 23:13
231F:推 pinkgaga: 看起來他們的設定是在70年代抵達地球囉? 05/08 23:14
232F:→ lOnCEl: 13分鐘 一萬按讚了 05/08 23:14
233F:推 leila84: 明天最後應該sana直接玩隱身了(>_<) 05/08 23:14
234F:推 pkkcyc: 推~ 05/08 23:14
235F:→ qazxswptt: 今天速度好像更快一點 05/08 23:14
236F:→ kshndhu: 我也猜是彩彩->定延->Sana 05/08 23:14
237F:推 irenefly: 猜sana>定延>彩瑛 05/08 23:15
238F:→ qazxswptt: 按這邏輯 那明天的髮型苦主應該是定延(誤 05/08 23:15
239F:推 GOQQ: 等等 定延在Kk髮型已經玩(?過一次了!?!? 05/08 23:15
240F:推 ilovema19: 推一个 大家都加油 05/08 23:16
241F:推 nojess: 目前最喜歡這組的造型 05/08 23:16
242F:推 kshndhu: 喜歡志效的造型 想到之前cover U-Go-Girl 舞台跟SNL XDDD 05/08 23:17
243F:推 rigger1218: 這次主題:復古森林系女孩!? 05/08 23:17
244F:推 AileeSu: 第三位我猜會挑比較好做特效又易懂的能力來拍… 05/08 23:17
245F:推 Ellie2324: 目前喜歡子瑜多賢三歲的造型 <3 05/08 23:18
246F:推 lovepeaceful: 期待明天的浴廁照!(咦? 05/08 23:18
247F:→ qazxswptt: 特效要好做 那就是氣音了 05/08 23:18
248F:推 a963852741l: >///< 05/08 23:18
249F:推 inaH: 一開始認不出是mina啊~~~ 05/08 23:18
250F:推 HowWhy99: 我猜苦主是 sana XDDDDD 05/08 23:19
251F:推 carre4: 明天該不會有爆炸頭吧XDDD 05/08 23:19
252F:→ qazxswptt: 我怎麼跟昨天一樣 一直重播...XD 05/08 23:19
253F:推 AileeSu: 照GOQQ大的話來說 SANA在二輯也被玩過爆炸玉米鬚頭了啊X 05/08 23:19
254F:→ AileeSu: D 05/08 23:19
255F:推 irenefly: 明天應該只有定延的能力比較難拍 05/08 23:20
256F:推 TWICEoMOMOo: 明天換定延 Sana 彩瑛 哪個人的髮型呢XDD 05/08 23:20
257F:→ qazxswptt: 所以玩頭髮的重責就交給定延了(誤 05/08 23:20
258F:推 rairew: 我很喜歡三歲的造型啊,覺得好漂亮>///< 05/08 23:20
259F:推 crazywing: 明天該不會都看不到SANA (因為隱形了 XDDD 05/08 23:20
260F:推 LN77081: 志效mina好美阿~~~ 05/08 23:21
261F:推 PROMAC: 三歲衣服的布料跟上次開喜婆婆頭巾很搭 XD 05/08 23:21
262F:推 EVA1125ONCE: 感覺明天彩定SA機率很大耶 SANA能力好像比較好接 05/08 23:22
263F:推 AileeSu: 對啊 我也覺得3歲的髮型很美欸,只是頭頂稍為亂了一點XD 05/08 23:22
264F:推 jok1216869: 三歲的蠻好看的啊 05/08 23:22
265F:推 lOnCEl: re過 10次了 好看啊 這運鏡 ! 05/08 23:22
266F:推 wumayzi: 志效超級超級超級超級超級美的!!! 05/08 23:23
267F:推 jaick1123: 我也猜明天第二個是定延~~ 05/08 23:23
268F:推 cherryyosi: 這次志效真的美翻,一出來整個驚豔! 05/08 23:23
269F:推 kshndhu: 三歲造型很好看啊 ~~ 05/08 23:23
270F:推 pudings: 我覺得復古系列很順眼耶怎麼搬XDDD好想看這套上音放哦 05/08 23:24
271F:推 vveva: 我猜明天苦主是定延 05/08 23:24
272F:推 lran29: 復古風都好美喔,雖然一開始認不出娜璉XDDDD 05/08 23:24
273F:推 chloeew: 三歲的頭髮太可愛了XD 05/08 23:25
274F:→ qazxswptt: 根據過去經驗 上音放有機會呀 衣服做了不用也可惜 05/08 23:25
275F:推 lechemelk: 十萬了XD 05/08 23:26
276F:推 fjiali05: 推!每個都好美>///< 05/08 23:26
277F:推 mike780503: 三歲生氣就像憤怒鳥了 (別打我XD 05/08 23:26
278F:推 yangbui: 三歲好可愛唷~~~小隊真的變好瘦~正翻! 05/08 23:26
279F:→ lran29: 是不是都最後一個展示能力啊!!! 志效是千里眼!!!好美喔!! 05/08 23:26
280F:推 szuning13: 志效超美耶 05/08 23:26
281F:推 leila84: 現在是在預熱將來復古風路線嗎?目前還沒有不適合的…期 05/08 23:27
282F:→ leila84: 待明天彩定sa 05/08 23:27
283F:推 tab222777: 猜明天換成SANA有搞笑的髮型XDDDDD 05/08 23:27
284F:→ qazxswptt: 而且千里眼的音效還很老派 XD 05/08 23:27
285F:推 pudings: 這次復古風大家都超美的整個覺得好棒 05/08 23:28
286F:推 lOnCEl: 期待值依然爆表 呀 ! 05/08 23:28
287F:推 emo9: 明天中獎的會是誰~~~~期待 05/08 23:29
288F:→ lOnCEl: XDD 05/08 23:30
289F:推 lie83715: 音效戳到我笑點哈哈哈哈是玫瑰瞳X眼嗎XDD 05/08 23:30
290F:→ lie83715: 但小隊超美的這造型很適合她! 05/08 23:31
291F:推 HowWhy99: 我會猜明天是 sana 是因為只有她是長髮 05/08 23:31
292F:推 PROMAC: 好期待超能力照 XD 05/08 23:32
293F:→ HowWhy99: 短髮怕髮量不夠 鳥巢弄不太起來 05/08 23:32
294F:推 lOnCEl: teaser的運鏡和場景都這種level了 MV真的值得期待呀 !! 05/08 23:32
295F:→ lOnCEl: ! 05/08 23:32
296F:推 lran29: 有點詭譎的音效XDDD 05/08 23:33
297F:推 Gaex: Sana 我是擔心只有她的頭髮隱身了TT 05/08 23:36
298F:推 garrickhsu: 哈哈哈哈哈哈哈哈哈哈哈哈哈哈哈哈哈哈哈哈是否太可愛 05/08 23:37
299F:→ garrickhsu: !!!!!!!! 05/08 23:37
300F:推 neewollaH: 差點認不出小姐姐,我要去罰跪了。小隊美翻了 05/08 23:37
301F:→ HowWhy99: 說不定只有人隱身 剩頭髮? XDDD 05/08 23:37
302F:推 starbacker: 兩大山脈開場!!!原來小隊和momo都有展現能力 05/08 23:38
303F:推 once1024: 今天換三歲的頭髮XDD 05/08 23:38
304F:推 jason0828: 期待明天換誰的頭髮XD 05/08 23:38
305F:推 JDFc: 志效好美!!! 05/08 23:39
306F:推 chisw: 每日一肉鬆XD 但是肉鬆意外都超可愛啊XD 05/08 23:40
307F:推 PuffyKu: 天阿小隊也太漂釀了吧!! 05/08 23:40
308F:→ qazxswptt: 彩彩的髮型好像很少被惡搞過 不知道有沒有機會XD 05/08 23:40
309F:推 i50523: 明SANA1 定2 彩3 應該XDD 05/08 23:40
310F:→ qazxswptt: 以接近肉鬆的髮色來決定誰當苦主 彩彩也是有機會的 05/08 23:44
311F:推 sxcv: 明天是誰呢XDDDD 05/08 23:44
312F:→ bluecat5566: 天啊 三個人都美到翻 05/08 23:45
313F:推 irenefly: 短髮可能來個爆炸捲(誤) 05/08 23:46
314F:推 Oranger99: 志效Mina好漂亮~(娜璉也好可愛~ 05/08 23:46
315F:→ qazxswptt: 這種頭也是70年代流行的 頭髮不用到很長也可以 05/08 23:48
317F:推 weni9: 明天的肉鬆隊感覺是sana啊XD 05/08 23:48
318F:推 ilGroundhog: 志效蠻適合復古風的 根本像那個年代走出來的 05/08 23:50
319F:推 lOnCEl: 我猜明天是定延的頭髮會有驚喜 05/08 23:50
320F:推 Nisio: 娜璉感覺上好俏皮XD 97line就是美貌~~w 05/08 23:51
322F:→ sol785632: 第一眼看到就想到這隻 05/08 23:52
323F:→ Nisio: 明天是Sana跟兩位girl crush~ 個人覺得Sa開場定髮型彩能力 05/08 23:52
325F:→ Nisio: 娜璉太可愛了XDDDD 期待各種P圖象徵圖..... 05/08 23:53
326F:推 WoooEooo: 小隊好美!! 05/08 23:55
327F:推 sandy52856: 推!超美!! 05/08 23:55
328F:推 jenny78962: 其實第一眼以為上面是個鳥窩會冒出一隻鳥(而且超像鸚 05/08 23:56
329F:→ jenny78962: 鵡呆毛)下一秒才發現是娜璉XD 05/08 23:56
330F:推 PerFrancis: 先推再說 05/08 23:57
331F:推 rice23613: 每天的Teaser出現的第二個人頭髮都很妙是嗎XD多賢跟三 05/08 23:58
332F:→ rice23613: 歲OAO 05/08 23:58
333F:→ rice23613: 推暖隊志效超正啊啊啊啊超殺<3 05/08 23:59
334F:推 Carlossan: 覺得三歲的髮型很可愛~真心喜歡大家的造型,很合適! 05/08 23:59
335F:推 jenny78962: 志效teaser首圖聯想到茉莉公主(腦波一個發散 05/09 00:00
336F:推 OGC218: 看到志效這次造型,真的很加分 05/09 00:00
337F:推 yulo: 小隊超美 05/09 00:02
338F:推 lran29: 志效真的美翻了!很像60 70年代出生在有錢人家裡的千金小姐 05/09 00:03
339F:推 husky1989: 我第一眼看到teaser縮圖 認不出那是志效呀!!! 05/09 00:04
340F:→ qazxswptt: 美 都美 05/09 00:04
341F:推 nashsong: 小隊好美啊啊啊 05/09 00:08
342F:推 Moneysteven: 美............ 05/09 00:09
343F:推 yuzuru: 三個都超!美!的!!!尤其是志效~造型好適合她! 05/09 00:11
344F:→ jaick1123: 小隊真的好漂亮啊~~ 05/09 00:14
345F:推 punk1342: 心臟被爆擊了 05/09 00:18
346F:推 a24294598: 猜sana被玩頭髮 05/09 00:19
347F:推 nojess: 小隊真的超正,美出新高度!!!!!!!!!被眼神重擊 05/09 00:20
348F:推 EVA1125ONCE: 還好多賢第一個出來 現在看到娜璉的頭髮覺得還好阿XD 05/09 00:23
349F:推 kikuwife: 美mina!!! 05/09 00:33
350F:推 BadSalaD: 三歲的髮型>< 05/09 00:41
351F:推 twkian22: 拉近的音效讓我有一種很熟悉的感覺.XD 05/09 00:50
352F:→ qazxswptt: 那音效聽過不少次了 但想不起來去哪找 05/09 00:55
353F:推 tony5846: 那音效很像以前小叮噹拿出道具的聲音 哈哈 05/09 00:57
354F:推 guitarspirit: 可以開賭盤明天是誰頭髮被玩了 不過我猜是Sana 05/09 01:02
355F:→ qazxswptt: 最想定延頭髮爆炸(誤 但髮色彩彩最搭 sana能力特效好做 05/09 01:06
356F:推 konglufacy: 肉鬆顏色也有深淺的啊.... 05/09 01:11
357F:推 EVA1125ONCE: 我覺得是定延 昨天看到有人說三歲和定延有燙頭髮 05/09 01:11
358F:推 HKHK: 推 05/09 01:12
359F:推 fangyu98: 推 第2位都要毛毛頭嗎XDD +1 05/09 01:27
360F:推 garyqbs: 今天被嚇到2次,娜璉的頭髮,最後的音效(好懷念的感覺)XDD 05/09 01:32
361F:推 a84666520: 5/15怎麼還不快點來!!!!!! 05/09 01:32
362F:推 zokyo: 看到今天志效用超能力,回去看才發現momo原來也有用... 05/09 01:34
363F:推 Vincentptt: 志效真美阿....MOMO有用超能力阿只是不明顯而已XD 05/09 02:45
364F:推 Gua2010: 志效美出新高度! 05/09 03:19
365F:推 raxt577: 我覺得第三組順序會是定延彩彩Sana,然後Sana消失 05/09 05:31
366F:推 ii378: 推 05/09 05:34
367F:推 shuttlecocks: Mina太美了 三歲好可愛 小隊造型很適合她 05/09 06:02
368F:推 Cindy971201: SNL的教室那場 那時候就覺得志效怎麼那麼適合復古風 05/09 06:10
369F:推 wumayzi: 我也猜:SANA1 定2 彩3 05/09 06:36
370F:推 wantsleep: 志效超美啊 05/09 07:08
371F:推 PinkBnN: 這三隻都很適合欸!!!!!!! 完美消化造型 05/09 07:23
372F:推 a0141704: 三歲的頭髮XDDDDDDDDDDDDDDDDDDDDDDD 05/09 08:44
373F:推 TTKevin: 我猜是彩瑛 Sana 定延 定延讓電視暫停然後結束 05/09 09:19
374F:推 yiersan: 志效超美的 05/09 09:33
375F:推 smile00823: 三人裡面一定有一個頭髮擔當XDDDD 05/09 09:37
377F:推 lOnCEl: 哇塞 ! 05/09 10:00
378F:推 lOnCEl: 看來那個聲音特效蠻普片的XDD 05/09 10:04
379F:推 js52666: 推個 05/09 10:22
380F:推 winteryoyo: 明天一定是彩彩!因為sana爆料多賢髮型像rapper 05/09 10:26
381F:推 wumayzi: 但也有爆料定延娜璉都有燙髮(還是捲髮?忘了XD ) 05/09 11:05
382F:推 belleaya: 期待彩彩 05/09 11:08
383F:推 lOnCEl: 我猜Sana 05/09 11:19
384F:推 eateating95: 推~ 05/09 12:18
385F:推 ktvno1: 猜 定>sa>彩 05/09 14:56
386F:推 Oranonce: 推推 05/09 16:55
※ 編輯: d00687 (124.155.162.187), 05/09/2017 23:12:51
387F:→ ktvno1: 哈我只猜對一個QQ 05/09 23:19